Find Starlink 1448

NORAD ID: 45665 Int'l Des: 2020-035 Owner: SPXS Country: US Constellation: starlink operational
LEOCIRCULAR

当前视图

正在加载3D地球...

About Starlink 1448

Starlink 1448 (NORAD 45665) is a starlink constellation satellite (v1.0) launched Jun 4, 2020 by SPXS of US. It operates in LEO, CIRCULAR orbit with a mass of 260.00 kg.

关于 Starlink 1448

正在加载描述...

即将过境

Passes for default location (London). Set your location on the main map for personalized predictions.

高度历史

Loading altitude history...

两行轨道根数

1 45665U 20035J 26171.50003471 .01104682 00000-0 73866-2 0 9997
2 45665 53.0421 270.1709 0001861 84.4584 184.0288 15.72442705 6013
Epoch: Jun 20, 2026 • Age: 27 hours

当前状态

高度 358.0 km
速度 7.69 km/s
星下点 -37.35°S, 19.55°W
发射日期 Jun 4, 2020
运行时间 6 years
类型 internet

技术详情

分类 Payload
质量 260.00 kg
干质量 248.00 kg
总质量 260.00 kg
长度 0.20 m
直径 2.80 m
跨度 9.00 m
形状 Box + pan
制造商 SPXS
平台类型 Starlink
阶段状态 In Orbit
所有者/国家 SPXS/US

Most Searched